CW0572 Weather Reports


Display with metric or nautical units.
time (UTC)temp
F
wind
direction
speed
MPH
gust
MPH
rain 1hr
in
rain 24hr
in
rain mn
in
humidity
%
barometer
mb
20181021011003 82 283 4.0 15.0 0.00 0.00 0.00 74 1015.0
20181021010503 82 254 4.0 15.0 0.00 0.00 0.00 73 1014.9
20181021010003 82 273 4.0 19.0 0.00 0.00 0.00 73 1014.9
20181021005503 82 314 8.0 19.0 0.00 0.00 0.00 72 1014.8
20181021005003 83 225 6.0 17.0 0.00 0.00 0.00 72 1014.7
20181021004503 83 302 11.0 15.0 0.00 0.00 0.00 72 1014.7
20181021004003 83 296 4.0 15.0 0.00 0.00 0.00 72 1014.6
20181021003503 83 279 8.0 11.0 0.00 0.00 0.00 72 1014.6
20181021003003 83 236 6.0 8.0 0.00 0.00 0.00 72 1014.6
20181021002503 83 226 4.0 8.0 0.00 0.00 0.00 73 1014.5
20181021002003 82 289 6.0 11.0 0.00 0.00 0.00 73 1014.5
20181021001503 82 244 6.0 11.0 0.00 0.00 0.00 73 1014.4
20181021001003 83 271 2.0 8.0 0.00 0.00 0.00 72 1014.4
20181021000503 83 246 2.0 4.0 0.00 0.00 0.00 71 1014.4
20181021000003 83 254 0.0 13.0 0.00 0.00 0.00 71 1014.3
20181020235503 83 246 0.0 13.0 0.00 0.00 0.00 70 1014.3
20181020235003 83 238 2.0 11.0 0.00 0.00 0.00 70 1014.2
20181020234503 83 242 0.0 11.0 0.00 0.00 0.00 71 1014.2
20181020234003 83 247 0.0 2.0 0.00 0.00 0.00 71 1014.2
20181020233503 83 247 0.0 0.0 0.00 0.00 0.00 72 1014.1
20181020233003 83 247 0.0 0.0 0.00 0.00 0.00 71 1013.9
20181020232503 83 247 0.0 0.0 0.00 0.00 0.00 70 1013.8
20181020232003 83 247 0.0 0.0 0.00 0.00 0.00 69 1013.8
20181020231503 84 247 0.0 0.0 0.00 0.00 0.00 69 1013.8
20181020231003 84 247 0.0 0.0 0.00 0.00 0.00 68 1013.7
20181020230503 84 247 0.0 0.0 0.00 0.00 0.00 68 1013.7
20181020230003 84 247 0.0 2.0 0.00 0.00 0.00 67 1013.8
20181020225503 85 247 0.0 11.0 0.00 0.00 0.00 67 1013.7
20181020225003 85 247 0.0 11.0 0.00 0.00 0.00 66 1013.6
20181020224503 85 216 0.0 13.0 0.00 0.00 0.00 66 1013.6
20181020224003 86 276 0.0 13.0 0.00 0.00 0.00 64 1013.6
20181020223503 86 292 4.0 6.0 0.00 0.00 0.00 63 1013.6
20181020223003 86 210 0.0 0.0 0.00 0.00 0.00 63 1013.3
20181020222503 86 210 0.0 0.0 0.00 0.00 0.00 62 1013.3
20181020222003 86 210 0.0 0.0 0.00 0.00 0.00 62 1013.3
20181020221504 86 210 0.0 0.0 0.00 0.00 0.00 62 1013.3
20181020221003 86 210 0.0 0.0 0.00 0.00 0.00 62 1013.3
20181020220503 87 210 0.0 0.0 0.00 0.00 0.00 62 1013.3
20181020220003 87 210 0.0 0.0 0.00 0.00 0.00 62 1013.3
20181020215503 87 210 0.0 0.0 0.00 0.00 0.00 61 1013.3
20181020215003 87 210 0.0 0.0 0.00 0.00 0.00 60 1013.1
20181020214503 87 210 0.0 0.0 0.00 0.00 0.00 61 1013.2
20181020214003 87 210 0.0 2.0 0.00 0.00 0.00 60 1013.2
20181020213503 87 210 0.0 2.0 0.00 0.00 0.00 59 1013.3
20181020213002 87 210 0.0 2.0 0.00 0.00 0.00 61 1013.3
20181020212503 88 210 0.0 2.0 0.00 0.00 0.00 60 1013.3
20181020212003 88 210 0.0 0.0 0.00 0.00 0.00 59 1013.2
20181020211503 88 210 0.0 0.0 0.00 0.00 0.00 58 1013.3
20181020211003 89 210 0.0 6.0 0.00 0.00 0.00 57 1013.3
20181020210503 90 210 0.0 6.0 0.00 0.00 0.00 56 1013.3
20181020210003 90 231 2.0 2.0 0.00 0.00 0.00 57 1013.3
20181020205503 90 231 0.0 6.0 0.00 0.00 0.00 56 1013.4
20181020205003 90 231 0.0 6.0 0.00 0.00 0.00 55 1013.5
20181020204503 90 212 0.0 4.0 0.00 0.00 0.00 55 1013.5
20181020204003 90 220 0.0 6.0 0.00 0.00 0.00 55 1013.5
20181020203503 90 97 0.0 6.0 0.00 0.00 0.00 55 1013.6
20181020203003 91 292 0.0 6.0 0.00 0.00 0.00 53 1013.6
20181020202503 91 287 0.0 4.0 0.00 0.00 0.00 53 1013.7
20181020202003 91 289 0.0 13.0 0.00 0.00 0.00 55 1013.7
20181020201503 90 290 0.0 13.0 0.00 0.00 0.00 55 1013.7
20181020201003 90 244 4.0 11.0 0.00 0.00 0.00 55 1013.7
20181020200502 90 239 0.0 2.0 0.00 0.00 0.00 56 1013.8
20181020200003 89 239 0.0 4.0 0.00 0.00 0.00 58 1013.9
20181020195503 89 239 0.0 4.0 0.00 0.00 0.00 59 1014.0
20181020195003 89 239 2.0 6.0 0.00 0.00 0.00 58 1014.0
20181020194503 89 239 0.0 6.0 0.00 0.00 0.00 58 1014.1
20181020194003 89 273 0.0 8.0 0.00 0.00 0.00 58 1014.0
20181020193504 89 294 0.0 13.0 0.00 0.00 0.00 57 1014.1
20181020193003 89 255 4.0 13.0 0.00 0.00 0.00 56 1014.2
20181020192503 89 260 2.0 8.0 0.00 0.00 0.00 57 1014.3
20181020192003 88 325 0.0 8.0 0.00 0.00 0.00 58 1014.4
20181020191503 88 257 0.0 8.0 0.00 0.00 0.00 58 1014.4
20181020191003 88 314 0.0 15.0 0.00 0.00 0.00 59 1014.4
20181020190503 88 278 6.0 15.0 0.00 0.00 0.00 59 1014.5
20181020190003 88 353 8.0 13.0 0.00 0.00 0.00 59 1014.5
20181020185502 87 283 6.0 13.0 0.00 0.00 0.00 60 1014.5
20181020185003 88 261 0.0 6.0 0.00 0.00 0.00 60 1014.6
20181020184503 88 253 0.0 4.0 0.00 0.00 0.00 60 1014.7
20181020184002 87 251 2.0 6.0 0.00 0.00 0.00 62 1014.8
20181020183503 87 248 0.0 6.0 0.00 0.00 0.00 62 1014.9
20181020183003 86 236 0.0 6.0 0.00 0.00 0.00 63 1014.9
20181020182503 86 242 2.0 6.0 0.00 0.00 0.00 62 1015.1
20181020182003 87 216 0.0 8.0 0.00 0.00 0.00 61 1015.3
20181020181503 87 252 4.0 8.0 0.00 0.00 0.00 61 1015.4
20181020181003 87 231 0.0 8.0 0.00 0.00 0.00 62 1015.4
20181020180503 86 240 4.0 11.0 0.00 0.00 0.00 63 1015.5
20181020180002 86 296 4.0 11.0 0.00 0.00 0.00 62 1015.6
20181020175503 86 323 4.0 11.0 0.00 0.00 0.00 65 1015.8
20181020175003 86 237 2.0 11.0 0.00 0.00 0.00 65 1015.9
20181020174503 86 299 2.0 13.0 0.00 0.00 0.00 64 1016.1
20181020174003 86 248 4.0 13.0 0.00 0.00 0.00 64 1016.1
20181020173503 86 296 0.0 8.0 0.00 0.00 0.00 66 1016.3
20181020173003 86 262 0.0 8.0 0.00 0.02 0.00 64 1016.4
20181020172503 87 306 6.0 8.0 0.00 0.09 0.00 62 1016.5
20181020172003 87 314 0.0 11.0 0.00 0.32 0.00 65 1016.6
20181020171502 86 300 2.0 11.0 0.00 0.47 0.00 65 1016.7
20181020171003 86 235 11.0 11.0 0.00 0.48 0.00 64 1016.9
20181020170503 86 256 4.0 11.0 0.00 0.48 0.00 65 1017.0
20181020170003 86 233 8.0 11.0 0.00 0.48 0.00 66 1017.1
20181020165503 86 257 0.0 8.0 0.00 0.48 0.00 65 1017.1
20181020165003 86 248 2.0 8.0 0.00 0.48 0.00 65 1017.2
20181020164503 85 281 0.0 6.0 0.00 0.48 0.00 68 1017.3
20181020164003 85 357 0.0 11.0 0.00 0.48 0.00 68 1017.4
20181020163502 84 272 0.0 11.0 0.00 0.48 0.00 68 1017.5
20181020163003 85 290 0.0 11.0 0.00 0.48 0.00 68 1017.6
20181020162503 85 267 4.0 11.0 0.00 0.48 0.00 67 1017.7
20181020162003 85 252 4.0 8.0 0.00 0.48 0.00 68 1017.8
20181020161503 85 256 4.0 13.0 0.00 0.48 0.00 68 1017.9
20181020161002 85 310 4.0 13.0 0.00 0.48 0.00 68 1018.0
20181020160503 85 337 6.0 11.0 0.00 0.48 0.00 70 1018.1
20181020160003 84 295 2.0 11.0 0.00 0.48 0.00 70 1018.2
20181020155503 84 307 0.0 11.0 0.00 0.48 0.00 70 1018.2
20181020155003 84 268 6.0 6.0 0.00 0.48 0.00 73 1018.4
20181020154503 83 278 0.0 8.0 0.00 0.48 0.00 73 1018.4
20181020154002 83 285 0.0 8.0 0.00 0.48 0.00 72 1018.4
20181020153502 83 214 0.0 4.0 0.00 0.48 0.00 73 1018.5
20181020153002 83 213 2.0 11.0 0.00 0.48 0.00 73 1018.5
20181020152502 83 269 4.0 11.0 0.00 0.48 0.00 70 1018.5
20181020152002 83 292 6.0 6.0 0.00 0.48 0.00 72 1018.5
20181020151503 83 300 0.0 15.0 0.00 0.48 0.00 71 1018.5
20181020151002 83 276 0.0 15.0 0.00 0.48 0.00 73 1018.5
20181020150503 83 270 15.0 15.0 0.00 0.48 0.00 73 1018.6
20181020150002 82 311 4.0 13.0 0.00 0.48 0.00 76 1018.7
20181020145502 82 301 0.0 8.0 0.00 0.48 0.00 76 1018.6
20181020145003 82 269 2.0 6.0 0.00 0.48 0.00 79 1018.7
20181020144503 82 281 0.0 8.0 0.00 0.48 0.00 80 1018.7
20181020144002 81 283 4.0 8.0 0.00 0.48 0.00 78 1018.8
20181020143502 81 294 2.0 6.0 0.00 0.48 0.00 79 1018.8
20181020143002 81 294 0.0 11.0 0.00 0.48 0.00 82 1018.8
20181020142502 81 297 6.0 11.0 0.00 0.48 0.00 82 1018.8
20181020142003 81 284 4.0 11.0 0.00 0.48 0.00 82 1018.8
20181020141503 80 306 0.0 6.0 0.00 0.48 0.00 83 1018.9
20181020141002 80 306 0.0 11.0 0.00 0.48 0.00 83 1018.9
20181020140502 80 279 0.0 11.0 0.00 0.48 0.00 85 1018.9
20181020140002 80 296 6.0 6.0 0.00 0.48 0.00 86 1018.9
20181020135503 80 220 0.0 6.0 0.00 0.48 0.00 86 1018.9
20181020135003 80 175 0.0 4.0 0.00 0.48 0.00 87 1018.9
20181020134503 79 167 0.0 4.0 0.00 0.48 0.00 87 1018.8
20181020134003 79 159 0.0 4.0 0.00 0.48 0.00 88 1018.8
20181020133502 79 152 0.0 4.0 0.00 0.48 0.00 89 1018.7
20181020133003 79 86 0.0 2.0 0.00 0.48 0.00 90 1018.7
20181020132503 78 86 0.0 2.0 0.00 0.48 0.00 92 1018.6
20181020132003 77 86 0.0 2.0 0.00 0.48 0.00 94 1018.6
20181020131503 77 86 0.0 2.0 0.00 0.48 0.00 94 1018.5
20181020131002 76 86 0.0 0.0 0.00 0.48 0.00 96 1018.5
20181020130502 76 86 0.0 0.0 0.00 0.48 0.00 97 1018.4
20181020130002 76 86 0.0 0.0 0.00 0.48 0.00 98 1018.3
20181020125503 76 86 0.0 0.0 0.00 0.48 0.00 98 1018.2
20181020125003 76 86 0.0 0.0 0.00 0.48 0.00 98 1018.2
20181020124502 75 86 0.0 0.0 0.00 0.48 0.00 98 1018.1
20181020124003 75 86 0.0 0.0 0.00 0.48 0.00 98 1018.1
20181020123503 75 86 0.0 0.0 0.00 0.48 0.00 98 1018.0
20181020123002 74 86 0.0 0.0 0.00 0.48 0.00 98 1018.0
20181020122503 73 86 0.0 0.0 0.00 0.48 0.00 98 1018.0
20181020122002 72 86 0.0 0.0 0.00 0.48 0.00 98 1017.8
20181020121502 72 86 0.0 0.0 0.00 0.48 0.00 98 1017.7
20181020121002 72 86 0.0 0.0 0.00 0.48 0.00 98 1017.7
20181020120503 72 86 0.0 0.0 0.00 0.48 0.00 98 1017.6
20181020120003 71 86 0.0 0.0 0.00 0.48 0.00 98 1017.6
20181020115502 71 86 0.0 0.0 0.00 0.48 0.00 98 1017.5
20181020115002 71 86 0.0 0.0 0.00 0.48 0.00 98 1017.5
20181020114502 71 86 0.0 0.0 0.00 0.48 0.00 98 1017.5
20181020114002 71 86 0.0 0.0 0.00 0.48 0.00 98 1017.5
20181020113502 71 86 0.0 0.0 0.00 0.48 0.00 97 1017.4
20181020113002 71 86 0.0 0.0 0.00 0.48 0.00 97 1017.4
20181020112502 71 86 0.0 0.0 0.00 0.48 0.00 97 1017.4
20181020112002 71 86 0.0 0.0 0.00 0.48 0.00 97 1017.4
20181020111502 71 86 0.0 0.0 0.00 0.48 0.00 97 1017.4
20181020111002 71 86 0.0 0.0 0.00 0.48 0.00 97 1017.4
20181020110503 71 86 0.0 0.0 0.00 0.48 0.00 97 1017.4
20181020110002 71 86 0.0 0.0 0.00 0.48 0.00 97 1017.5
20181020105503 71 86 0.0 0.0 0.00 0.48 0.00 97 1017.5
20181020105002 71 86 0.0 0.0 0.00 0.48 0.00 97 1017.5
20181020104503 71 86 0.0 0.0 0.00 0.48 0.00 97 1017.4
20181020104003 72 86 0.0 0.0 0.00 0.48 0.00 97 1017.5
20181020103503 72 86 0.0 0.0 0.00 0.48 0.00 97 1017.5
20181020103002 72 86 0.0 0.0 0.00 0.48 0.00 97 1017.5
20181020102503 72 86 0.0 0.0 0.00 0.48 0.00 97 1017.5
20181020102002 72 86 0.0 0.0 0.00 0.48 0.00 97 1017.5
20181020101502 72 86 0.0 0.0 0.00 0.48 0.00 97 1017.4
20181020101002 72 86 0.0 0.0 0.00 0.48 0.00 97 1017.5
20181020100503 72 86 0.0 0.0 0.00 0.48 0.00 97 1017.5
20181020100002 72 86 0.0 0.0 0.00 0.48 0.00 97 1017.4
20181020095503 72 86 0.0 0.0 0.00 0.48 0.00 97 1017.4
20181020095002 72 86 0.0 0.0 0.00 0.48 0.00 97 1017.4
20181020094502 72 86 0.0 0.0 0.00 0.48 0.00 97 1017.4
20181020094002 72 86 0.0 0.0 0.00 0.48 0.00 97 1017.3
20181020093503 72 86 0.0 0.0 0.00 0.48 0.00 97 1017.3
20181020093002 72 86 0.0 0.0 0.00 0.48 0.00 97 1017.3
20181020092502 72 86 0.0 0.0 0.00 0.48 0.00 97 1017.3
20181020092002 72 86 0.0 0.0 0.00 0.48 0.00 97 1017.2
20181020091502 72 86 0.0 0.0 0.00 0.48 0.00 97 1017.2
20181020091003 72 86 0.0 0.0 0.00 0.48 0.00 97 1017.3
20181020090502 72 86 0.0 0.0 0.00 0.48 0.00 97 1017.3
20181020090002 72 86 0.0 0.0 0.00 0.48 0.00 97 1017.3
20181020085503 72 86 0.0 0.0 0.00 0.48 0.00 97 1017.3
20181020085002 72 86 0.0 0.0 0.00 0.48 0.00 97 1017.3
20181020084502 72 86 0.0 0.0 0.00 0.48 0.00 97 1017.4
20181020084002 72 86 0.0 0.0 0.00 0.48 0.00 97 1017.4
20181020083502 72 86 0.0 0.0 0.00 0.48 0.00 97 1017.4
20181020083002 72 86 0.0 0.0 0.00 0.48 0.00 97 1017.3
20181020082502 72 86 0.0 0.0 0.00 0.48 0.00 97 1017.3
20181020082002 72 86 0.0 0.0 0.00 0.48 0.00 97 1017.4
20181020081503 72 86 0.0 0.0 0.00 0.48 0.00 97 1017.3
20181020081022 72 86 0.0 0.0 0.00 0.48 0.00 97 1017.4
20181020080502 73 86 0.0 0.0 0.00 0.48 0.00 97 1017.5
20181020080002 73 86 0.0 0.0 0.00 0.48 0.00 97 1017.5
20181020075502 73 86 0.0 0.0 0.00 0.48 0.00 97 1017.5
20181020075003 73 86 0.0 0.0 0.00 0.48 0.00 97 1017.6
20181020074503 73 86 0.0 0.0 0.00 0.48 0.00 97 1017.6
20181020074002 73 86 0.0 0.0 0.00 0.48 0.00 97 1017.6
20181020073502 73 86 0.0 0.0 0.00 0.48 0.00 97 1017.7
20181020073002 73 86 0.0 0.0 0.00 0.48 0.00 97 1017.7
20181020072502 73 86 0.0 0.0 0.00 0.48 0.00 97 1017.8
20181020072002 73 86 0.0 0.0 0.00 0.48 0.00 97 1017.8
20181020071503 73 86 0.0 0.0 0.00 0.48 0.00 97 1018.0
20181020071002 73 86 0.0 0.0 0.00 0.48 0.00 97 1018.0
20181020070502 73 86 0.0 0.0 0.00 0.48 0.00 97 1018.0
20181020070002 73 86 0.0 0.0 0.00 0.48 0.00 97 1018.0
20181020065502 73 86 0.0 0.0 0.00 0.48 0.00 97 1018.1
20181020065002 73 86 0.0 0.0 0.00 0.48 0.00 97 1018.1
20181020064503 73 86 0.0 0.0 0.00 0.48 0.00 96 1018.2
20181020064002 73 86 0.0 0.0 0.00 0.48 0.00 96 1018.3
20181020063503 74 86 0.0 0.0 0.00 0.48 0.00 96 1018.2
20181020063003 74 86 0.0 0.0 0.00 0.48 0.00 96 1018.3
20181020062502 74 86 0.0 0.0 0.00 0.48 0.00 96 1018.3
20181020062002 74 86 0.0 0.0 0.00 0.48 0.00 96 1018.4
20181020061502 74 86 0.0 0.0 0.00 0.48 0.00 96 1018.4
20181020061003 74 86 0.0 0.0 0.00 0.48 0.00 96 1018.5
20181020060502 74 86 0.0 0.0 0.00 0.48 0.00 96 1018.6
20181020060002 74 86 0.0 0.0 0.00 0.48 0.00 96 1018.7
20181020055503 74 86 0.0 0.0 0.00 0.48 0.00 96 1018.7
20181020055002 74 86 0.0 0.0 0.00 0.48 0.00 96 1018.6
20181020054502 74 86 0.0 0.0 0.00 0.48 0.00 96 1018.7
20181020054003 74 86 0.0 0.0 0.00 0.48 0.00 96 1018.7
20181020053502 74 86 0.0 0.0 0.00 0.48 0.00 96 1018.7
20181020053003 74 86 0.0 0.0 0.00 0.48 0.00 96 1018.8
20181020052502 74 86 0.0 0.0 0.00 0.48 0.00 96 1018.8
20181020052003 75 86 0.0 0.0 0.00 0.48 0.00 96 1018.9
20181020051502 75 86 0.0 0.0 0.00 0.48 0.00 96 1019.0
20181020051003 75 86 0.0 0.0 0.00 0.48 0.00 96 1019.0
20181020050502 75 86 0.0 0.0 0.00 0.48 0.00 96 1019.1
20181020050002 75 86 0.0 0.0 0.00 0.48 0.00 96 1019.0
20181020045502 75 86 0.0 0.0 0.00 0.48 0.00 96 1019.2
20181020045002 75 86 0.0 0.0 0.00 0.48 0.00 96 1019.1
20181020044502 75 86 0.0 0.0 0.00 0.48 0.00 96 1019.2
20181020044002 75 86 0.0 0.0 0.00 0.48 0.00 96 1019.2
20181020043502 74 86 0.0 0.0 0.00 0.48 0.00 96 1019.2
20181020043002 74 86 0.0 0.0 0.00 0.48 0.00 96 1019.2
20181020042502 74 86 0.0 0.0 0.00 0.48 0.00 96 1019.3
20181020042002 74 86 0.0 0.0 0.00 0.48 0.00 96 1019.3
20181020041503 74 86 0.0 0.0 0.00 0.48 0.00 96 1019.4
20181020041002 74 86 0.0 0.0 0.00 0.48 0.00 96 1019.4
20181020040502 74 86 0.0 0.0 0.00 0.48 0.00 96 1019.4
20181020040002 74 86 0.0 0.0 0.00 0.48 0.00 96 1019.4
20181020035502 74 86 0.0 0.0 0.00 0.48 0.48 96 1019.4
20181020035002 74 86 0.0 0.0 0.00 0.48 0.48 96 1019.3
20181020034502 74 86 0.0 0.0 0.00 0.48 0.48 95 1019.4
20181020034002 74 86 0.0 0.0 0.00 0.48 0.48 95 1019.4
20181020033502 75 86 0.0 0.0 0.00 0.48 0.48 95 1019.5
20181020033002 75 86 0.0 0.0 0.00 0.48 0.48 95 1019.5
20181020032502 75 86 0.0 0.0 0.00 0.48 0.48 95 1019.5
20181020032002 75 86 0.0 0.0 0.00 0.48 0.48 95 1019.5
20181020031502 75 86 0.0 0.0 0.00 0.48 0.48 95 1019.5
20181020031002 75 86 0.0 0.0 0.00 0.48 0.48 95 1019.5
20181020030502 75 86 0.0 0.0 0.00 0.48 0.48 95 1019.5
20181020030002 75 86 0.0 0.0 0.00 0.48 0.48 95 1019.5
20181020025502 75 86 0.0 0.0 0.00 0.48 0.48 95 1019.5
20181020025002 75 86 0.0 0.0 0.00 0.48 0.48 95 1019.4
20181020024502 75 86 0.0 0.0 0.00 0.48 0.48 94 1019.4
20181020024002 75 86 0.0 0.0 0.00 0.48 0.48 94 1019.4
20181020023502 75 86 0.0 0.0 0.00 0.48 0.48 94 1019.4
20181020023002 75 86 0.0 0.0 0.00 0.48 0.48 94 1019.5
20181020022502 76 86 0.0 0.0 0.00 0.48 0.48 94 1019.4
20181020022002 76 86 0.0 0.0 0.00 0.48 0.48 94 1019.4
20181020021502 76 86 0.0 0.0 0.00 0.48 0.48 94 1019.5
20181020021002 76 86 0.0 0.0 0.00 0.48 0.48 94 1019.5
20181020020502 76 86 0.0 0.0 0.00 0.48 0.48 93 1019.5
20181020020002 76 86 0.0 0.0 0.00 0.48 0.48 93 1019.5
20181020015502 76 86 0.0 0.0 0.00 0.48 0.48 93 1019.5
20181020015002 76 86 0.0 0.0 0.00 0.48 0.48 93 1019.5
20181020014503 76 86 0.0 0.0 0.00 0.48 0.48 92 1019.4
20181020014002 76 86 0.0 0.0 0.00 0.48 0.48 92 1019.4
20181020013502 76 86 0.0 0.0 0.00 0.48 0.48 92 1019.5
20181020013002 76 86 0.0 0.0 0.00 0.48 0.48 92 1019.5
20181020012502 77 86 0.0 0.0 0.00 0.48 0.48 91 1019.4
20181020012002 77 86 0.0 0.0 0.00 0.48 0.48 91 1019.4
20181020011502 77 86 0.0 0.0 0.00 0.48 0.48 91 1019.4